| time (UTC) | temp C | wind direction | speed KPH | gust KPH | rain 1hr cm | rain 24hr cm | rain mn cm | humidity % | barometer mb |
| 20260507120059 | 10 | 5 | 0.0 | 0.0 | 0.00 | 0.23 | 0.13 | 91 | 1007.3 |
| 20260507114558 | 10 | 0 | 0.0 | 1.6 | 0.00 | 0.23 | 0.13 | 91 | 1007.0 |
| 20260507113134 | 10 | 0 | 0.0 | 0.0 | 0.00 | 0.23 | 0.13 | 91 | 1007.2 |
| 20260507111604 | 10 | 0 | 0.0 | 0.0 | 0.00 | 0.23 | 0.13 | 91 | 1007.1 |
| 20260507110105 | 10 | 0 | 0.0 | 0.0 | 0.03 | 0.23 | 0.13 | 90 | 1007.3 |
| 20260507104614 | 10 | 0 | 0.0 | 0.0 | 0.03 | 0.23 | 0.13 | 90 | 1007.2 |
| 20260507103100 | 10 | 0 | 0.0 | 0.0 | 0.05 | 0.23 | 0.13 | 90 | 1006.6 |
| 20260507101600 | 10 | 0 | 0.0 | 0.0 | 0.10 | 0.23 | 0.13 | 89 | 1006.9 |
| 20260507100101 | 10 | 0 | 0.0 | 0.0 | 0.08 | 0.20 | 0.10 | 89 | 1006.4 |
| 20260507094620 | 10 | 0 | 0.0 | 1.6 | 0.08 | 0.20 | 0.10 | 88 | 1006.6 |
| 20260507093100 | 10 | 0 | 0.0 | 0.0 | 0.05 | 0.18 | 0.08 | 88 | 1006.6 |
| 20260507091600 | 10 | 0 | 0.0 | 6.4 | 0.00 | 0.13 | 0.03 | 88 | 1006.7 |
| 20260507090101 | 10 | 0 | 0.0 | 1.6 | 0.00 | 0.13 | 0.03 | 88 | 1006.7 |
| 20260507084602 | 11 | 0 | 0.0 | 0.0 | 0.03 | 0.13 | 0.03 | 87 | 1006.4 |
| 20260507083100 | 11 | 0 | 0.0 | 3.2 | 0.03 | 0.13 | 0.03 | 87 | 1006.2 |
| 20260507081558 | 11 | 0 | 0.0 | 4.8 | 0.03 | 0.13 | 0.03 | 86 | 1006.2 |
| 20260507074558 | 11 | 0 | 0.0 | 6.4 | 0.00 | 0.10 | 0.00 | 86 | 1006.2 |
| 20260507073110 | 12 | 0 | 0.0 | 4.8 | 0.00 | 0.10 | 0.00 | 86 | 1005.7 |
| 20260507071600 | 12 | 0 | 0.0 | 3.2 | 0.00 | 0.10 | 0.00 | 87 | 1005.8 |
| 20260507070110 | 12 | 0 | 0.0 | 3.2 | 0.00 | 0.10 | 0.00 | 86 | 1005.5 |
| 20260507064606 | 12 | 0 | 0.0 | 4.8 | 0.00 | 0.10 | 0.00 | 87 | 1005.7 |
| 20260507063059 | 13 | 348 | 0.0 | 4.8 | 0.00 | 0.10 | 0.00 | 88 | 1005.5 |
| 20260507061559 | 13 | 0 | 0.0 | 4.8 | 0.00 | 0.10 | 0.00 | 90 | 1005.6 |
| 20260507060100 | 13 | 0 | 0.0 | 6.4 | 0.00 | 0.10 | 0.00 | 90 | 1005.6 |
| 20260507054600 | 13 | 0 | 0.0 | 3.2 | 0.00 | 0.10 | 0.00 | 90 | 1005.8 |
| 20260507053100 | 13 | 0 | 0.0 | 6.4 | 0.00 | 0.10 | 0.00 | 90 | 1005.6 |
| 20260507051608 | 14 | 0 | 0.0 | 6.4 | 0.00 | 0.10 | 0.00 | 91 | 1005.6 |
| 20260507050110 | 14 | 0 | 0.0 | 6.4 | 0.00 | 0.10 | 0.00 | 91 | 1005.7 |
| 20260507044600 | 15 | 0 | 0.0 | 8.0 | 0.00 | 0.10 | 0.00 | 93 | 1005.4 |
| 20260507043100 | 15 | 271 | 0.0 | 4.8 | 0.00 | 0.10 | 0.00 | 94 | 1005.6 |
| 20260507041601 | 15 | 0 | 0.0 | 6.4 | 0.00 | 0.10 | 0.00 | 94 | 1005.4 |
| 20260507040106 | 15 | 0 | 0.0 | 9.7 | 0.00 | 0.10 | 0.00 | 94 | 1005.5 |
| 20260507034605 | 15 | 0 | 0.0 | 4.8 | 0.00 | 0.10 | 0.10 | 94 | 1005.5 |
| 20260507033103 | 15 | 0 | 0.0 | 6.4 | 0.00 | 0.10 | 0.10 | 94 | 1005.4 |
| 20260507031604 | 15 | 0 | 0.0 | 0.0 | 0.00 | 0.10 | 0.10 | 94 | 1005.0 |
| 20260507024601 | 15 | 0 | 0.0 | 8.0 | 0.00 | 0.10 | 0.10 | 94 | 1005.0 |
| 20260507023057 | 15 | 0 | 0.0 | 11.3 | 0.00 | 0.10 | 0.10 | 94 | 1005.2 |
| 20260507021616 | 15 | 0 | 0.0 | 6.4 | 0.00 | 0.10 | 0.10 | 94 | 1005.0 |
| 20260507020059 | 15 | 0 | 0.0 | 4.8 | 0.00 | 0.10 | 0.10 | 94 | 1005.2 |
| 20260507014601 | 15 | 0 | 0.0 | 6.4 | 0.00 | 0.10 | 0.10 | 94 | 1005.2 |
| 20260507013100 | 15 | 0 | 0.0 | 14.5 | 0.00 | 0.10 | 0.10 | 94 | 1005.3 |
| 20260507011605 | 14 | 155 | 0.0 | 11.3 | 0.00 | 0.10 | 0.10 | 94 | 1005.4 |
| 20260507004559 | 14 | 0 | 0.0 | 6.4 | 0.03 | 0.10 | 0.10 | 93 | 1005.3 |
| 20260507003059 | 14 | 0 | 0.0 | 8.0 | 0.05 | 0.10 | 0.10 | 93 | 1005.5 |
| 20260507001606 | 14 | 0 | 0.0 | 8.0 | 0.05 | 0.10 | 0.10 | 93 | 1005.3 |
| 20260507000101 | 14 | 0 | 1.6 | 11.3 | 0.05 | 0.10 | 0.10 | 93 | 1005.3 |
| 20260506234624 | 14 | 244 | 1.6 | 14.5 | 0.03 | 0.08 | 0.08 | 92 | 1005.3 |
| 20260506233100 | 15 | 167 | 0.0 | 12.9 | 0.00 | 0.05 | 0.05 | 92 | 1005.2 |
| 20260506231559 | 15 | 174 | 1.6 | 14.5 | 0.00 | 0.05 | 0.05 | 91 | 1005.4 |
| 20260506230100 | 15 | 180 | 3.2 | 14.5 | 0.03 | 0.05 | 0.05 | 91 | 1005.5 |
| 20260506224556 | 15 | 179 | 3.2 | 20.9 | 0.03 | 0.05 | 0.05 | 91 | 1005.5 |
| 20260506223101 | 15 | 197 | 3.2 | 16.1 | 0.03 | 0.05 | 0.05 | 90 | 1005.6 |
| 20260506221557 | 16 | 127 | 0.0 | 12.9 | 0.03 | 0.05 | 0.05 | 89 | 1005.7 |
| 20260506220058 | 16 | 0 | 1.6 | 14.5 | 0.00 | 0.03 | 0.03 | 89 | 1006.0 |
| 20260506214557 | 16 | 0 | 1.6 | 14.5 | 0.00 | 0.03 | 0.03 | 88 | 1006.0 |
| 20260506213057 | 16 | 193 | 1.6 | 14.5 | 0.03 | 0.03 | 0.03 | 88 | 1006.1 |
| 20260506211557 | 16 | 0 | 0.0 | 6.4 | 0.03 | 0.03 | 0.03 | 87 | 1006.2 |
| 20260506210058 | 16 | 0 | 0.0 | 17.7 | 0.03 | 0.03 | 0.03 | 86 | 1006.4 |
| 20260506204601 | 16 | 141 | 0.0 | 14.5 | 0.03 | 0.03 | 0.03 | 83 | 1006.4 |
| 20260506203059 | 17 | 0 | 1.6 | 11.3 | 0.00 | 0.00 | 0.00 | 82 | 1006.4 |
| 20260506201600 | 17 | 0 | 0.0 | 16.1 | 0.00 | 0.00 | 0.00 | 82 | 1006.2 |
| 20260506200113 | 17 | 171 | 3.2 | 14.5 | 0.00 | 0.00 | 0.00 | 81 | 1006.2 |
| 20260506194619 | 17 | 195 | 3.2 | 25.7 | 0.00 | 0.00 | 0.00 | 78 | 1006.6 |
| 20260506193058 | 18 | 0 | 1.6 | 17.7 | 0.00 | 0.00 | 0.00 | 75 | 1006.5 |
| 20260506191559 | 18 | 182 | 1.6 | 19.3 | 0.00 | 0.00 | 0.00 | 72 | 1006.4 |
| 20260506190101 | 19 | 169 | 6.4 | 19.3 | 0.00 | 0.00 | 0.00 | 70 | 1006.5 |
| 20260506184611 | 19 | 163 | 6.4 | 19.3 | 0.00 | 0.00 | 0.00 | 68 | 1006.5 |
| 20260506183107 | 20 | 198 | 3.2 | 14.5 | 0.00 | 0.00 | 0.00 | 67 | 1006.6 |
| 20260506181602 | 20 | 188 | 3.2 | 24.1 | 0.00 | 0.00 | 0.00 | 67 | 1006.6 |
| 20260506174603 | 21 | 140 | 4.8 | 22.5 | 0.00 | 0.00 | 0.00 | 65 | 1007.1 |
| 20260506173116 | 21 | 0 | 4.8 | 16.1 | 0.00 | 0.00 | 0.00 | 65 | 1007.0 |
| 20260506171602 | 20 | 180 | 3.2 | 17.7 | 0.00 | 0.00 | 0.00 | 67 | 1007.1 |
| 20260506170058 | 20 | 192 | 3.2 | 17.7 | 0.00 | 0.00 | 0.00 | 68 | 1007.4 |
| 20260506164602 | 20 | 141 | 6.4 | 19.3 | 0.00 | 0.00 | 0.00 | 66 | 1007.4 |
| 20260506163106 | 20 | 192 | 3.2 | 20.9 | 0.00 | 0.00 | 0.00 | 66 | 1007.6 |
| 20260506161607 | 20 | 188 | 6.4 | 17.7 | 0.00 | 0.00 | 0.00 | 66 | 1007.9 |
| 20260506154601 | 21 | 134 | 4.8 | 22.5 | 0.00 | 0.00 | 0.00 | 64 | 1008.3 |
| 20260506153101 | 22 | 204 | 3.2 | 25.7 | 0.00 | 0.00 | 0.00 | 63 | 1008.5 |
| 20260506151609 | 21 | 161 | 6.4 | 25.7 | 0.00 | 0.00 | 0.00 | 65 | 1008.5 |
| 20260506150107 | 21 | 163 | 3.2 | 17.7 | 0.00 | 0.00 | 0.00 | 66 | 1008.8 |
| 20260506144619 | 20 | 210 | 4.8 | 20.9 | 0.00 | 0.00 | 0.00 | 68 | 1008.6 |
| 20260506143103 | 20 | 178 | 4.8 | 16.1 | 0.00 | 0.00 | 0.00 | 69 | 1008.6 |
| 20260506141558 | 19 | 183 | 3.2 | 19.3 | 0.00 | 0.00 | 0.00 | 71 | 1008.7 |
| 20260506140111 | 19 | 193 | 1.6 | 14.5 | 0.00 | 0.00 | 0.00 | 72 | 1008.9 |
| 20260506134559 | 19 | 0 | 1.6 | 14.5 | 0.00 | 0.00 | 0.00 | 73 | 1009.2 |
| 20260506133059 | 18 | 107 | 3.2 | 16.1 | 0.00 | 0.00 | 0.00 | 73 | 1009.2 |
| 20260506131600 | 18 | 194 | 1.6 | 14.5 | 0.00 | 0.00 | 0.00 | 75 | 1009.1 |
| 20260506130136 | 18 | 167 | 4.8 | 19.3 | 0.00 | 0.00 | 0.00 | 76 | 1009.3 |
| 20260506124559 | 17 | 0 | 0.0 | 11.3 | 0.00 | 0.00 | 0.00 | 79 | 1009.5 |
| 20260506123059 | 17 | 0 | 0.0 | 14.5 | 0.00 | 0.00 | 0.00 | 80 | 1009.4 |
| 20260506121602 | 16 | 0 | 3.2 | 14.5 | 0.00 | 0.00 | 0.00 | 80 | 1009.1 |